Time,TemperatureF,DewpointF,PressureIn,WindDirection,WindDirectionDegrees,WindSpeedMPH,WindSpeedGustMPH,Humidity,HourlyPrecipIn,Conditions,Clouds,dailyrainin,SolarRadiationWatts/m^2,SoftwareType,DateUTC
2013-11-22 00:02:00,50.0,49.0,-100.00,NE,43,0.0,2.0,96,0.00,,,0.11,0.000000,,2013-11-22 05:02:00,
2013-11-22 00:12:00,50.0,49.0,-100.00,NE,42,0.0,2.0,96,0.00,,,0.11,0.000000,,2013-11-22 05:12:00,
2013-11-22 00:43:00,50.0,49.0,-100.00,NE,42,0.0,2.0,96,0.00,,,0.11,0.000000,,2013-11-22 05:43:00,
2013-11-22 00:53:00,50.0,49.0,-100.00,NE,42,0.0,2.0,96,0.00,,,0.11,0.000000,,2013-11-22 05:53:00,
2013-11-22 01:02:00,50.0,49.0,-100.00,NE,42,0.0,2.0,96,0.00,,,0.11,0.000000,,2013-11-22 06:02:00,
2013-11-22 01:12:00,50.0,49.0,-100.00,NNE,27,0.0,4.0,97,0.00,,,0.11,0.000000,,2013-11-22 06:12:00,
2013-11-22 01:42:00,50.0,49.0,-100.00,NNE,27,0.0,4.0,97,0.00,,,0.11,0.000000,,2013-11-22 06:42:00,
2013-11-22 01:52:00,50.0,49.0,-100.00,NNE,27,0.0,4.0,97,0.00,,,0.11,0.000000,,2013-11-22 06:52:00,
2013-11-22 02:02:00,50.0,49.0,-100.00,NNE,27,0.0,4.0,97,0.00,,,0.11,0.000000,,2013-11-22 07:02:00,
2013-11-22 02:12:00,50.0,49.0,-100.00,NNE,14,0.0,2.0,96,0.00,,,0.11,0.000000,,2013-11-22 07:12:00,
2013-11-22 02:42:00,50.0,49.0,-100.00,NNE,14,0.0,2.0,96,0.00,,,0.11,0.000000,,2013-11-22 07:42:00,
2013-11-22 02:52:00,50.0,49.0,-100.00,NNE,14,0.0,2.0,96,0.00,,,0.11,0.000000,,2013-11-22 07:52:00,
2013-11-22 03:01:00,50.0,49.0,-100.00,NNE,14,0.0,2.0,96,0.00,,,0.11,0.000000,,2013-11-22 08:01:00,
2013-11-22 03:12:00,50.0,49.0,-100.00,NNE,32,0.0,3.0,96,0.00,,,0.11,0.000000,,2013-11-22 08:12:00,
2013-11-22 03:42:00,50.0,49.0,-100.00,NNE,32,0.0,3.0,96,0.00,,,0.11,0.000000,,2013-11-22 08:42:00,
2013-11-22 03:52:00,50.0,49.0,-100.00,NNE,32,0.0,3.0,96,0.00,,,0.11,0.000000,,2013-11-22 08:52:00,
2013-11-22 04:02:00,50.0,49.0,-100.00,NNE,32,0.0,3.0,96,0.00,,,0.11,0.000000,,2013-11-22 09:02:00,
2013-11-22 04:12:00,51.0,50.0,-100.00,NNE,12,0.0,3.0,95,0.00,,,0.11,0.000000,,2013-11-22 09:12:00,
2013-11-22 04:43:00,51.0,50.0,-100.00,NNE,12,0.0,3.0,95,0.00,,,0.11,0.000000,,2013-11-22 09:43:00,
2013-11-22 04:53:00,51.0,50.0,-100.00,NNE,12,0.0,3.0,95,0.00,,,0.11,0.000000,,2013-11-22 09:53:00,
2013-11-22 05:03:00,51.0,50.0,-100.00,NNE,12,0.0,3.0,95,0.00,,,0.11,0.000000,,2013-11-22 10:03:00,
2013-11-22 05:12:00,51.0,50.0,-100.00,NNE,31,0.0,1.0,95,0.00,,,0.11,0.000000,,2013-11-22 10:12:00,
2013-11-22 05:43:00,51.0,50.0,-100.00,NNE,31,0.0,1.0,95,0.00,,,0.11,0.000000,,2013-11-22 10:43:00,
2013-11-22 05:53:00,51.0,50.0,-100.00,NNE,31,0.0,1.0,95,0.00,,,0.11,0.000000,,2013-11-22 10:53:00,
2013-11-22 06:02:00,51.0,50.0,-100.00,NNE,31,0.0,1.0,95,0.00,,,0.11,0.000000,,2013-11-22 11:02:00,
2013-11-22 06:12:00,51.0,50.0,-100.00,North,6,0.0,1.0,95,0.00,,,0.11,0.000000,,2013-11-22 11:12:00,
2013-11-22 06:43:00,51.0,50.0,-100.00,North,6,0.0,1.0,95,0.00,,,0.11,0.000000,,2013-11-22 11:43:00,
2013-11-22 06:52:00,51.0,50.0,-100.00,North,6,0.0,1.0,95,0.00,,,0.11,0.000000,,2013-11-22 11:52:00,
2013-11-22 07:02:00,51.0,50.0,-100.00,North,6,0.0,1.0,95,0.00,,,0.11,0.000000,,2013-11-22 12:02:00,
2013-11-22 07:42:00,51.0,50.0,-100.00,NNE,29,0.0,3.0,95,0.00,,,0.11,0.000000,,2013-11-22 12:42:00,
2013-11-22 07:52:00,51.0,50.0,-100.00,NNE,29,0.0,3.0,95,0.00,,,0.11,0.000000,,2013-11-22 12:52:00,
2013-11-22 08:02:00,51.0,50.0,-100.00,NNE,29,0.0,3.0,95,0.00,,,0.11,0.000000,,2013-11-22 13:02:00,
2013-11-22 08:11:00,51.0,50.0,-100.00,NNE,29,0.0,3.0,95,0.00,,,0.11,0.000000,,2013-11-22 13:11:00,
2013-11-22 08:12:00,52.0,51.0,-100.00,NE,41,0.0,3.0,95,0.00,,,0.11,25.000000,,2013-11-22 13:12:00,
2013-11-22 08:42:00,52.0,51.0,-100.00,NE,41,0.0,3.0,95,0.00,,,0.11,25.000000,,2013-11-22 13:42:00,
2013-11-22 08:52:00,52.0,51.0,-100.00,NE,41,0.0,3.0,95,0.00,,,0.11,25.000000,,2013-11-22 13:52:00,
2013-11-22 09:02:00,52.0,51.0,-100.00,NE,41,0.0,3.0,95,0.00,,,0.11,25.000000,,2013-11-22 14:02:00,
2013-11-22 09:42:00,53.0,52.0,-100.00,NNE,17,0.0,2.0,95,0.00,,,0.11,50.000000,,2013-11-22 14:42:00,
2013-11-22 09:52:00,53.0,52.0,-100.00,NNE,17,0.0,2.0,95,0.00,,,0.11,50.000000,,2013-11-22 14:52:00,
2013-11-22 10:02:00,53.0,52.0,-100.00,NNE,17,0.0,2.0,95,0.00,,,0.11,50.000000,,2013-11-22 15:02:00,
2013-11-22 10:11:00,53.0,52.0,-100.00,NNE,17,0.0,2.0,95,0.00,,,0.11,50.000000,,2013-11-22 15:11:00,
2013-11-22 10:12:00,55.0,54.0,-100.00,South,187,1.0,4.0,95,0.00,,,0.11,121.000000,,2013-11-22 15:12:00,
2013-11-22 10:44:00,55.0,54.0,-100.00,South,187,1.0,4.0,95,0.00,,,0.11,121.000000,,2013-11-22 15:44:00,
2013-11-22 10:54:00,55.0,54.0,-100.00,South,187,1.0,4.0,95,0.00,,,0.11,121.000000,,2013-11-22 15:54:00,
2013-11-22 11:03:00,55.0,54.0,-100.00,South,187,1.0,4.0,95,0.00,,,0.11,121.000000,,2013-11-22 16:03:00,
2013-11-22 11:12:00,57.0,55.0,-100.00,SW,230,0.0,4.0,92,0.00,,,0.11,154.000000,,2013-11-22 16:12:00,
2013-11-22 11:44:00,57.0,55.0,-100.00,SW,230,0.0,4.0,92,0.00,,,0.11,154.000000,,2013-11-22 16:44:00,
2013-11-22 11:53:00,57.0,55.0,-100.00,SW,230,0.0,4.0,92,0.00,,,0.11,154.000000,,2013-11-22 16:53:00,
2013-11-22 12:03:00,57.0,55.0,-100.00,SW,230,0.0,4.0,92,0.00,,,0.11,154.000000,,2013-11-22 17:03:00,
2013-11-22 12:12:00,58.0,55.0,-100.00,NW,310,0.0,3.0,91,0.00,,,0.11,165.000000,,2013-11-22 17:12:00,
2013-11-22 12:42:00,58.0,55.0,-100.00,NW,310,0.0,3.0,91,0.00,,,0.11,165.000000,,2013-11-22 17:42:00,
2013-11-22 12:52:00,58.0,55.0,-100.00,NW,310,0.0,3.0,91,0.00,,,0.11,165.000000,,2013-11-22 17:52:00,
2013-11-22 13:02:00,58.0,55.0,-100.00,NW,310,0.0,3.0,91,0.00,,,0.11,165.000000,,2013-11-22 18:02:00,
2013-11-22 13:42:00,61.0,57.0,-100.00,West,281,1.0,3.0,87,0.00,,,0.11,196.000000,,2013-11-22 18:42:00,
2013-11-22 13:52:00,61.0,57.0,-100.00,West,281,1.0,3.0,87,0.00,,,0.11,196.000000,,2013-11-22 18:52:00,
2013-11-22 14:01:00,61.0,57.0,-100.00,West,281,1.0,3.0,87,0.00,,,0.11,196.000000,,2013-11-22 19:01:00,
2013-11-22 14:11:00,61.0,57.0,-100.00,West,281,1.0,3.0,87,0.00,,,0.11,196.000000,,2013-11-22 19:11:00,
2013-11-22 14:42:00,63.0,58.0,-100.00,NNW,328,0.0,5.0,84,0.00,,,0.11,186.000000,,2013-11-22 19:42:00,
2013-11-22 14:53:00,63.0,58.0,-100.00,NNW,328,0.0,5.0,84,0.00,,,0.11,186.000000,,2013-11-22 19:53:00,
2013-11-22 15:02:00,63.0,58.0,-100.00,NNW,328,0.0,5.0,84,0.00,,,0.11,186.000000,,2013-11-22 20:02:00,
2013-11-22 15:11:00,63.0,58.0,-100.00,NNW,328,0.0,5.0,84,0.00,,,0.11,186.000000,,2013-11-22 20:11:00,
2013-11-22 15:42:00,61.0,58.0,-100.00,North,355,0.0,4.0,89,0.00,,,0.11,88.000000,,2013-11-22 20:42:00,
2013-11-22 15:52:00,61.0,58.0,-100.00,North,355,0.0,4.0,89,0.00,,,0.11,88.000000,,2013-11-22 20:52:00,
2013-11-22 16:02:00,61.0,58.0,-100.00,North,355,0.0,4.0,89,0.00,,,0.11,88.000000,,2013-11-22 21:02:00,
2013-11-22 16:11:00,61.0,58.0,-100.00,North,355,0.0,4.0,89,0.00,,,0.11,88.000000,,2013-11-22 21:11:00,
2013-11-22 16:12:00,61.0,58.0,-100.00,NW,320,0.0,3.0,90,0.00,,,0.11,61.000000,,2013-11-22 21:12:00,
2013-11-22 16:43:00,61.0,58.0,-100.00,NW,320,0.0,3.0,90,0.00,,,0.11,61.000000,,2013-11-22 21:43:00,
2013-11-22 16:53:00,61.0,58.0,-100.00,NW,320,0.0,3.0,90,0.00,,,0.11,61.000000,,2013-11-22 21:53:00,
2013-11-22 17:03:00,61.0,58.0,-100.00,NW,320,0.0,3.0,90,0.00,,,0.11,61.000000,,2013-11-22 22:03:00,
2013-11-22 17:12:00,61.0,58.0,-100.00,WNW,296,0.0,3.0,90,0.00,,,0.11,28.000000,,2013-11-22 22:12:00,
2013-11-22 17:42:00,61.0,58.0,-100.00,WNW,296,0.0,3.0,90,0.00,,,0.11,28.000000,,2013-11-22 22:42:00,
2013-11-22 17:53:00,61.0,58.0,-100.00,WNW,296,0.0,3.0,90,0.00,,,0.11,28.000000,,2013-11-22 22:53:00,
2013-11-22 18:02:00,61.0,58.0,-100.00,WNW,296,0.0,3.0,90,0.00,,,0.11,28.000000,,2013-11-22 23:02:00,
2013-11-22 18:12:00,60.0,58.0,-100.00,North,354,0.0,0.0,92,0.00,,,0.10,1.000000,,2013-11-22 23:12:00,
2013-11-22 18:42:00,60.0,58.0,-100.00,North,354,0.0,0.0,92,0.00,,,0.10,1.000000,,2013-11-22 23:42:00,
2013-11-22 18:53:00,60.0,58.0,-100.00,North,354,0.0,0.0,92,0.00,,,0.10,1.000000,,2013-11-22 23:53:00,
2013-11-22 19:02:00,60.0,58.0,-100.00,North,354,0.0,0.0,92,0.00,,,0.10,1.000000,,2013-11-23 00:02:00,
2013-11-22 19:42:00,60.0,58.0,-100.00,East,95,0.0,0.0,93,0.00,,,0.02,0.000000,,2013-11-23 00:42:00,
2013-11-22 19:52:00,60.0,58.0,-100.00,East,95,0.0,0.0,93,0.00,,,0.02,0.000000,,2013-11-23 00:52:00,
2013-11-22 20:02:00,60.0,58.0,-100.00,East,95,0.0,0.0,93,0.00,,,0.02,0.000000,,2013-11-23 01:02:00,
2013-11-22 20:11:00,60.0,58.0,-100.00,East,95,0.0,0.0,93,0.00,,,0.02,0.000000,,2013-11-23 01:11:00,
2013-11-22 20:42:00,60.0,58.0,-100.00,NE,42,0.0,1.0,94,0.00,,,0.01,0.000000,,2013-11-23 01:42:00,
2013-11-22 20:53:00,60.0,58.0,-100.00,NE,42,0.0,1.0,94,0.00,,,0.01,0.000000,,2013-11-23 01:53:00,
2013-11-22 21:02:00,60.0,58.0,-100.00,NE,42,0.0,1.0,94,0.00,,,0.01,0.000000,,2013-11-23 02:02:00,
2013-11-22 21:11:00,60.0,58.0,-100.00,NE,42,0.0,1.0,94,0.00,,,0.01,0.000000,,2013-11-23 02:11:00,
2013-11-22 21:12:00,59.0,58.0,-100.00,SSW,194,0.0,3.0,95,0.00,,,0.00,0.000000,,2013-11-23 02:12:00,
2013-11-22 21:42:00,59.0,58.0,-100.00,SSW,194,0.0,3.0,95,0.00,,,0.00,0.000000,,2013-11-23 02:42:00,
2013-11-22 21:53:00,59.0,58.0,-100.00,SSW,194,0.0,3.0,95,0.00,,,0.00,0.000000,,2013-11-23 02:53:00,
2013-11-22 22:02:00,59.0,58.0,-100.00,SSW,194,0.0,3.0,95,0.00,,,0.00,0.000000,,2013-11-23 03:02:00,
2013-11-22 22:12:00,60.0,59.0,-100.00,SW,234,0.0,3.0,96,0.00,,,0.00,0.000000,,2013-11-23 03:12:00,
2013-11-22 22:43:00,60.0,59.0,-100.00,SW,234,0.0,3.0,96,0.00,,,0.00,0.000000,,2013-11-23 03:43:00,
2013-11-22 22:53:00,60.0,59.0,-100.00,SW,234,0.0,3.0,96,0.00,,,0.00,0.000000,,2013-11-23 03:53:00,
2013-11-22 23:03:00,60.0,59.0,-100.00,SW,234,0.0,3.0,96,0.00,,,0.00,0.000000,,2013-11-23 04:03:00,
2013-11-22 23:12:00,60.0,59.0,-100.00,WSW,244,2.0,8.0,95,0.00,,,0.00,0.000000,,2013-11-23 04:12:00,
2013-11-22 23:43:00,60.0,59.0,-100.00,WSW,244,2.0,8.0,95,0.00,,,0.00,0.000000,,2013-11-23 04:43:00,
2013-11-22 23:53:00,60.0,59.0,-100.00,WSW,244,2.0,8.0,95,0.00,,,0.00,0.000000,,2013-11-23 04:53:00,